Info Terbaru :

Jackpot

Texas Poker Multi Jackpot System

Kini Telah hadir Jackpot SUPER ROYAL FLUSH

Kini Telah hadir Jackpot 2000 (khusus table VIP keatas).

Ikutilah global jackpot yang tersedia di system kami, dengan system jackpot terbaru dan pertama di indonesia, anda dapat membeli jackpot dengan harga 100 rupiah saja dan menangkan hadiahnya hingga puluhan juta rupiah.

Jackpot bukanlah suatu keharusan untuk dibeli, namun kami memberikan suatu fitur tambahan untuk member tercinta dari www.main303poker.net.

Terdapat tiga pilihan harga jackpot yang bisa anda beli yaitu :100,500,1000 dan 2000(khusus table VIP Keatas) rupiah.

Hadiah dari Multi jackpot system www.main303poker.net

  1. full house x 10 harga jackpot yang anda beli.
      (contoh:anda membeli 1000 maka:1000 X10 = 10.000)
  2. four of kind x 250 harga jackpot yang anda beli
      (contoh:anda membeli 1000 maka:1000 X250 = 250.000)
  3. Straight flush x 1200
      (contoh:anda membeli 1000 maka:1000 X1200 = 1.200.000)
  4. Royal flush x 10000 harga jackpot yang anda beli
      (contoh:anda membeli 1000 maka:1000 X10000 = 10.000.000)
  5. SUPER ROYAL FLUSH x 30000 harga jackpot yang anda beli
      (contoh:anda membeli 1000 maka:1000 X30000 = 30.000.000)

Kondisi kartu

  1. full house adalah kondisi kartu dimana kartu anda dan kartu tengah dengan total 7 kartu bisa mendapatkan nilai 5 kartu dengan kombinasi 1 tris(three of kind) dan 1 pair, contoh 3 kartu 10 dan 2 kartu 5
  2. Four of kind adalah kondisi kartu dimana kartu anda dan kartu tengah dengan total 7 kartu bisa mendapatkan nilai 5 kartu dengan kombinasi 4 kartu yang sama jumlah dan 1 kartu apapun juga contoh anda mendapatkan 4 buah kartu angka 3 dan 1 kartu apapun.
  3. Staright flush adalah kondisi kartu dimana kartu anda dan kartu tengah dengan total 7 kartu bisa mendapatkan nilai 5 kartu dengan kombinasi seri / staright dengan kembang yang sama contoh : urutan kartu dari angka 5, 6, 7, 8 , 9 10 dengan kembang yg sama misalnya as hati
  4. Royal flush adalah kondisi kartu dimana kartu anda dan kartu tengah dengan total 7 kartu bisa mendapatkan nilai 5 kartu dengan kombinasi seri / staright dengan kembang yang sama tetapi kartu tersebut haruslah dimulai dari 10. contoh 10, Queen, Jack, King dan aces dengan kembang yang sama
  5. Super Royal flush adalah kondisi kartu dimana Kedua kartu anda digabung dengan 3 kartu pertama meja haruslah royal flush. contoh kartu anda 10,Queen kembang sama dan 3 kartu pertama meja adalah Jack, King dan aces dengan kembang yang sama

Demikian adalah penjelasan dari Multi Jackpot www.main303poker.net terima kasih dan selamat bermain salam hoki dari kami

Texas Poker Jackpot Winner

TOP SUPER ROYAL FLUSH
No.TanggalNamaPriceWin
118/01 07:26HARI2504Super Royal flush6,000,000
218/01 03:05SCRETLOVE5Super Royal flush3,000,000
318/01 00:20YESGOLSuper Royal flush3,000,000
417/01 20:17DED36857Super Royal flush60,000,000
517/01 14:11ZOMBIE4Super Royal flush15,000,000
TOP ROYAL FLUSH
No.TanggalNamaPriceWin
118/01 08:35YOH_AHRoyal flush5,000,000
218/01 07:46ULONOGO69Royal flush1,000,000
318/01 07:26CODET91Royal flush5,000,000
418/01 06:37ARB89185Royal flush500,000
518/01 06:14EXG3Q86BZNRoyal flush5,000,000
TOP STRAIGHT FLUSH
No.TanggalNamaPriceWin
118/01 08:41STRESZ24Straight Flush1,200,000
218/01 08:40FROG88Straight Flush2,400,000
318/01 08:36YNGYNG77Straight Flush240,000
418/01 08:36BADJINGANEStraight Flush120,000
518/01 08:35MOD4R0Straight Flush120,000
LATEST JACKPOT
No.TanggalNamaPriceWin
118/01 08:42IJAL225Full House5,000
218/01 08:42AL451Four Of A Kind50,000
318/01 08:41DITS90Full House5,000
418/01 08:41J0R38Full House2,000
518/01 08:41SDR171Full House2,000
618/01 08:41S4NCANG3Full House10,000
718/01 08:41TRADE171Full House20,000
818/01 08:41HAAN9Full House20,000
918/01 08:41NAPOT1305Full House2,000
1018/01 08:41JHONHUK8Full House20,000
1118/01 08:41SWAMPLOKFull House2,000
1218/01 08:41TINGTINGGGFull House2,000
1318/01 08:41BCHUTZ99Full House10,000
1418/01 08:41JAGUAR7676Full House10,000
1518/01 08:41JONDET49Full House5,000
1618/01 08:41DANZGTFour Of A Kind50,000
1718/01 08:41KOJEK9911Full House2,000
1818/01 08:41MUMU10001Full House500
1918/01 08:41NEONBOX_Full House1,000
2018/01 08:41SANJAY81Full House1,000
2118/01 08:41AALNAAAN86Full House10,000
2218/01 08:41TEMPIK01Full House2,000
2318/01 08:41BERUS999Full House2,000
2418/01 08:41SKUNKKFull House1,000
2518/01 08:41MONA001Full House2,000
2618/01 08:41CUR4NGYAFull House5,000
2718/01 08:41IPAY1980Four Of A Kind25,000
2818/01 08:41STRESZ24Straight Flush1,200,000
2918/01 08:41A09B8B97Full House5,000
3018/01 08:40BDAA3914Full House5,000
3118/01 08:40DWBTGSIE5Full House2,000
3218/01 08:40SUNTONO00Full House1,000
3318/01 08:40ASMO01Full House5,000
3418/01 08:40JASAIBU99Full House2,000
3518/01 08:40ST8G6M59ZHFull House5,000
3618/01 08:40JP_CEKFull House1,000
3718/01 08:40DIEGO111Full House2,000
3818/01 08:40ZAKET99Full House5,000
3918/01 08:40QVHRKJBTL5Full House10,000
4018/01 08:40MARYANI299Full House20,000
4118/01 08:40KIMC11LFull House5,000
4218/01 08:40BONCELL12Full House2,000
4318/01 08:40AL451Full House2,000
4418/01 08:40ANELKA5555Full House2,000
4518/01 08:40D943AB8AFull House2,000
4618/01 08:40KIBY1425Full House5,000
4718/01 08:40CEKBOMFull House2,000
4818/01 08:40AZIM1996Full House1,000
4918/01 08:40JALAKJALFour Of A Kind50,000
5018/01 08:40ST8G6M59ZHFull House5,000

Domino Multi Jackpot System

Ikutilah global jackpot yang tersedia di system kami, dengan system jackpot terbaru dan pertama di indonesia, anda dapat membeli jackpot dengan harga 100 rupiah saja dan menangkan hadiahnya hingga puluhan juta rupiah.

Jackpot bukanlah suatu keharusan untuk dibeli, namun kami memberikan suatu fitur tambahan untuk member tercinta dari www.main303poker.net.

Terdapat tiga pilihan harga jackpot yang bisa anda beli yaitu :100,500 dan 1000 rupiah.

Hadiah dari Multi jackpot system www.main303poker.net

  1. Murni Kecil x 50 harga jackpot yang anda beli.
      (contoh:anda membeli 1000 maka:1000 X 50 = 50.000)
  2. Murni Besar x 50 harga jackpot yang anda beli
      (contoh:anda membeli 1000 maka:1000 X 50 = 50.000)
  3. BALAK x 100 harga jackpot yang anda beli
      (contoh:anda membeli 1000 maka:1000 X 100 = 100.000)
  4. ENAM DEWA x 6666 harga jackpot yang anda beli
      (contoh:anda membeli 1000 maka:1000 X 6666 = 6.666.000)

Demikian adalah penjelasan dari Multi Jackpot www.main303poker.net terima kasih dan selamat bermain salam hoki dari kami

Domino Jackpot Winner

TOP ENAM DEWA
No.TanggalNamaPriceWin
118/01 03:38M3RD4murni enam3,333,000
218/01 02:47PKPT21murni enam6,666,000
318/01 02:17MA060314murni enam666,600
417/01 23:28GANASSS02murni enam6,666,000
517/01 23:22DARKZLIU91murni enam6,666,000
TOP BALAK
No.TanggalNamaPriceWin
118/01 08:40FJM6HJJA5Hbalak10,000
218/01 08:34JUNKHEAD0balak100,000
318/01 08:26PERKARAbalak100,000
418/01 08:24N4G4EM4Sbalak100,000
518/01 08:14IZ45392balak50,000
LATEST JACKPOT
No.TanggalNamaPriceWin
118/01 08:42FREE11AAmurni besar5,000
218/01 08:41JAPRANImurni kecil5,000
318/01 08:40FJM6HJJA5Hbalak10,000
418/01 08:36TARBINCILmurni kecil25,000
518/01 08:34RAMPEKmurni kecil5,000
618/01 08:34THURAMRAMmurni kecil5,000
718/01 08:34DEKULmurni kecil50,000
818/01 08:34JUNKHEAD0balak100,000
918/01 08:32BABINGPETmurni kecil25,000
1018/01 08:32JIPUNK27murni besar25,000
1118/01 08:32BONIKUEmurni besar50,000
1218/01 08:32YAHUTSSSmurni kecil50,000
1318/01 08:31DENAI88murni besar50,000
1418/01 08:28KAMPE22lucky9925,000
1518/01 08:26PERKARAbalak100,000
1618/01 08:26TY0R1murni kecil5,000
1718/01 08:25AADRAAAS88murni kecil25,000
1818/01 08:25TOBAQQmurni kecil5,000
1918/01 08:25RUPE999murni besar50,000
2018/01 08:24TWINS21lucky99200,000
2118/01 08:24N4G4EM4Sbalak100,000
2218/01 08:22FEBRIANSYAmurni besar50,000
2318/01 08:22APUT1992murni besar25,000
2418/01 08:21OWABONGmurni kecil50,000
2518/01 08:20NGATANGmurni kecil25,000
2618/01 08:19MUKTAY21murni kecil25,000
2718/01 08:19JHONHUK8murni besar50,000
2818/01 08:19KER01murni besar50,000
2918/01 08:17AWAY0000murni kecil5,000
3018/01 08:15MAMUN74murni kecil50,000
3118/01 08:14IZ45392balak50,000
3218/01 08:14DWBTUSEI45murni besar50,000
3318/01 08:14ARI6636murni kecil5,000
3418/01 08:14A9_3Nmurni besar50,000
3518/01 08:13NGATANGmurni kecil25,000
3618/01 08:13SALEHO27balak10,000
3718/01 08:12DEWWIQQbalak100,000
3818/01 08:12KUMANHELLbalak100,000
3918/01 08:12VARIO162murni kecil25,000
4018/01 08:12YAYA2TOUmurni besar5,000
4118/01 08:10YWNWC0MW8Smurni kecil25,000
4218/01 08:10XTAR_99murni besar25,000
4318/01 08:09TARBINCILmurni kecil25,000
4418/01 08:08TOPELEVENmurni kecil50,000
4518/01 08:07TANU90lucky9950,000
4618/01 08:04FIKI3murni besar50,000
4718/01 08:03SAIDIL46murni kecil50,000
4818/01 08:03BEBEC98murni kecil50,000
4918/01 08:02SITUMULYAmurni besar50,000
5018/01 08:01SGD0673VJCmurni kecil25,000

Ceme Multi Jackpot System

Jackpot dilihat dari gabungan kartu pemain dengan kartu bandar. Bandar harus membeli jackpot sebanyak jumlah player yang sedang duduk. Sebagai contoh bila terdapat 3 pemain duduk bermain, dan bandar memutuskan untuk membeli jackpot Rp 1.000, maka pada periode tersebut bandar akan membeli jackpot sebanyak 3xRp1.000 = Rp3.000.

Jackpot bukanlah suatu keharusan untuk dibeli, namun kami memberikan suatu fitur tambahan untuk member tercinta dari www.main303poker.net.

Terdapat tiga pilihan harga jackpot yang bisa anda beli yaitu :100,500 dan 1000 rupiah.

Hadiah dari Multi jackpot system www.main303poker.net

  1. Murni Kecil x 50 harga jackpot yang anda beli.
      (contoh:anda membeli 1000 maka:1000 X 50 = 50.000)
  2. Murni Besar x 50 harga jackpot yang anda beli
      (contoh:anda membeli 1000 maka:1000 X 50 = 50.000)
  3. BALAK x 200 harga jackpot yang anda beli
      (contoh:anda membeli 1000 maka:1000 X 200 = 200.000)
  4. ENAM DEWA x 6666 harga jackpot yang anda beli
      (contoh:anda membeli 1000 maka:1000 X 6666 = 6.666.000)

Demikian adalah penjelasan dari Multi Jackpot www.main303poker.net terima kasih dan selamat bermain salam hoki dari kami

Ceme Jackpot Winner

TOP ENAM DEWA
No.TanggalNamaPriceWin
118/01 06:38ADLANI01murni enam6,666,000
218/01 05:57KUGI9999murni enam6,666,000
318/01 05:28WD18888murni enam666,600
418/01 05:20ELEHWAE6murni enam6,666,000
518/01 05:20IPMAN411murni enam666,600
TOP BALAK
No.TanggalNamaPriceWin
118/01 08:39WASRUUNbalak200,000
218/01 08:38T4DNEWMOON99balak200,000
318/01 08:38AGUSCOY27balak200,000
418/01 08:37WDAKEHMBAHbalak100,000
518/01 08:37AADRBCDL73balak20,000
LATEST JACKPOT
No.TanggalNamaPriceWin
118/01 08:41MONYET2murni kecil50,000
218/01 08:41JUTEK1985murni kecil25,000
318/01 08:41DEDETBJXmurni kecil50,000
418/01 08:41DWP89505murni kecil5,000
518/01 08:41BROMO78murni kecil25,000
618/01 08:41BEROK250murni kecil50,000
718/01 08:40SIXGODSSXmurni kecil50,000
818/01 08:39WASRUUNbalak200,000
918/01 08:39IYAN8080murni kecil25,000
1018/01 08:39HK_5888murni kecil50,000
1118/01 08:39OMAN_25murni kecil25,000
1218/01 08:39R4JATEGA99murni kecil50,000
1318/01 08:39JAYENG99murni besar50,000
1418/01 08:39PS89murni kecil50,000
1518/01 08:38LB886154murni kecil25,000
1618/01 08:38T4DNEWMOON99balak200,000
1718/01 08:38E8AB9AB7murni besar50,000
1818/01 08:38AGUSCOY27balak200,000
1918/01 08:38JUYEXZ99murni kecil50,000
2018/01 08:37AY4U82murni kecil50,000
2118/01 08:37ARMIANA22murni kecil50,000
2218/01 08:37BENSKILLmurni kecil50,000
2318/01 08:37CALVEN99murni besar25,000
2418/01 08:37WINATA28murni besar50,000
2518/01 08:37WDAKEHMBAHbalak100,000
2618/01 08:37AADRBCDL73balak20,000
2718/01 08:37HARRY202murni besar50,000
2818/01 08:37NINO007murni besar5,000
2918/01 08:36OHSHITmurni besar50,000
3018/01 08:36SIXGODSSXmurni besar50,000
3118/01 08:36HK_5888balak200,000
3218/01 08:36OMAN_25balak100,000
3318/01 08:36KLASSIKKUSbalak100,000
3418/01 08:35DB88847murni besar50,000
3518/01 08:35ORI01murni kecil5,000
3618/01 08:35CELIK378murni besar25,000
3718/01 08:34R4JATEGA99balak200,000
3818/01 08:33BEROK250murni besar50,000
3918/01 08:33IDUTEAmurni kecil50,000
4018/01 08:32HARRY202murni kecil50,000
4118/01 08:32LYN828balak200,000
4218/01 08:32EMON304balak200,000
4318/01 08:32ROSSI186murni kecil25,000
4418/01 08:31JAYENG99balak200,000
4518/01 08:31GUSDUR52balak100,000
4618/01 08:31M4DU033murni besar25,000
4718/01 08:31ARSAPATI19balak20,000
4818/01 08:31E8AB9AB7murni kecil50,000
4918/01 08:31SAM1312murni besar5,000
5018/01 08:31SETIYANTO1murni besar50,000